Location: Fxbg
(38.3018°N, 77.4708°W)
Time: 21:22:04
(UTC-05:00)

ISS - Visible Passes

Search period start: 10 December 2025 00:00
Search period end: 20 December 2025 00:00
Orbit: 416 x 420 km, 51.6° (Epoch: 10 December)

Date Brightness Start Highest point End Pass type
(mag) Time Alt. Az. Time Alt. Az. Time Alt. Az.
10 Dec -0.6 06:35:55 10° S 06:38:27 20° SE 06:41:00 10° E visible
11 Dec -0.2 05:49:40 10° SE 05:50:45 11° SE 05:51:49 10° ESE visible
12 Dec -3.3 06:35:50 10° SW 06:39:10 64° SE 06:42:31 10° NE visible
13 Dec -2.0 05:48:12 10° SSW 05:51:17 34° SE 05:54:23 10° ENE visible
14 Dec -1.2 05:02:32 17° SSE 05:03:26 19° SE 05:05:55 10° E visible
14 Dec -3.3 06:36:46 10° WSW 06:40:00 41° NW 06:43:13 10° NE visible
15 Dec -3.9 05:50:48 38° WSW 05:51:56 72° NW 05:55:18 10° NE visible
16 Dec -1.7 05:05:36 26° ENE 05:05:36 26° ENE 05:07:14 10° ENE visible
16 Dec -2.2 06:38:35 11° WNW 06:40:56 19° NNW 06:43:28 10° NNE visible
17 Dec -2.5 05:53:04 27° NNW 05:53:04 27° NNW 05:55:39 10° NNE visible
18 Dec -0.9 05:07:20 13° NE 05:07:20 13° NE 05:07:43 10° NE visible
18 Dec -1.5 06:40:36 10° NW 06:41:56 12° NNW 06:43:17 10° N visible
19 Dec -1.5 05:54:21 14° N 05:54:21 14° N 05:55:34 10° NNE visible
